Wetterdaten: Sonntag, 25.08.2013
Datum Zeit Temperatur Luftfeuchte Luftdruck Regen Wind Richtung Richtung Taupunkt Windchill Windben
25.08.2013 00:00 13,0 C 95 % 1015,2 hPa 0,0 l/m 0,5 km/h (0 Bft) S-SO 157 12,2 C 13,1 C 0,0 km/h (0 Bft)
25.08.2013 00:05 13,0 C 95 % 1015,2 hPa 0,0 l/m 0,0 km/h (0 Bft) S 180 12,2 C 13,0 C 0,0 km/h (0 Bft)
25.08.2013 00:10 13,0 C 95 % 1015,2 hPa 0,0 l/m 0,0 km/h (0 Bft) S 180 12,2 C 13,0 C 0,0 km/h (0 Bft)
25.08.2013 00:15 12,9 C 95 % 1015,2 hPa 0,0 l/m 0,0 km/h (0 Bft) O-SO 112 12,1 C 12,9 C 0,0 km/h (0 Bft)
25.08.2013 00:20 12,9 C 95 % 1015,1 hPa 0,0 l/m 0,0 km/h (0 Bft) O-SO 112 12,1 C 12,9 C 0,0 km/h (0 Bft)
25.08.2013 00:25 12,9 C 95 % 1015,1 hPa 0,0 l/m 0,0 km/h (0 Bft) O 90 12,1 C 12,9 C 0,0 km/h (0 Bft)
25.08.2013 00:30 12,8 C 95 % 1015,1 hPa 0,0 l/m 0,0 km/h (0 Bft) SO 135 12,0 C 12,8 C 0,0 km/h (0 Bft)
25.08.2013 00:35 12,8 C 95 % 1015,1 hPa 0,0 l/m 0,3 km/h (0 Bft) SW 225 12,0 C 12,8 C 0,0 km/h (0 Bft)
25.08.2013 00:40 12,8 C 95 % 1014,9 hPa 0,0 l/m 0,3 km/h (0 Bft) O 90 12,0 C 12,8 C 0,0 km/h (0 Bft)
25.08.2013 00:45 12,8 C 95 % 1014,9 hPa 0,0 l/m 0,5 km/h (0 Bft) O-NO 67 12,0 C 12,8 C 5,8 km/h (2 Bft)
25.08.2013 00:50 12,8 C 95 % 1014,9 hPa 0,0 l/m 0,6 km/h (0 Bft) NO 45 12,0 C 12,8 C 0,0 km/h (0 Bft)
25.08.2013 00:55 12,8 C 95 % 1014,9 hPa 0,0 l/m 0,6 km/h (0 Bft) S-SO 157 12,0 C 12,8 C 0,0 km/h (0 Bft)
25.08.2013 01:00 12,8 C 95 % 1014,9 hPa 0,0 l/m 0,5 km/h (0 Bft) NO 45 12,0 C 12,8 C 0,0 km/h (0 Bft)
25.08.2013 01:05 12,9 C 95 % 1014,9 hPa 0,0 l/m 0,3 km/h (0 Bft) O-SO 112 12,1 C 12,8 C 2,6 km/h (1 Bft)
25.08.2013 01:10 12,9 C 95 % 1014,9 hPa 0,0 l/m 0,8 km/h (0 Bft) N-NO 22 12,1 C 12,9 C 1,6 km/h (1 Bft)
25.08.2013 01:15 12,9 C 95 % 1014,9 hPa 0,0 l/m 0,8 km/h (0 Bft) N-NO 22 12,1 C 12,9 C 0,0 km/h (0 Bft)
25.08.2013 01:20 12,9 C 95 % 1014,8 hPa 0,0 l/m 0,6 km/h (0 Bft) S-SW 202 12,1 C 12,9 C 0,0 km/h (0 Bft)
25.08.2013 01:25 12,9 C 95 % 1014,8 hPa 0,7 l/m 0,3 km/h (0 Bft) S 180 12,1 C 12,9 C 0,0 km/h (0 Bft)
25.08.2013 01:30 12,9 C 95 % 1014,8 hPa 0,0 l/m 0,3 km/h (0 Bft) O-NO 67 12,1 C 12,9 C 0,0 km/h (0 Bft)
25.08.2013 01:35 12,9 C 95 % 1014,8 hPa 0,0 l/m 0,5 km/h (0 Bft) S-SO 157 12,1 C 12,9 C 2,7 km/h (1 Bft)
25.08.2013 01:40 12,9 C 95 % 1014,9 hPa 0,0 l/m 0,6 km/h (0 Bft) S-SO 157 12,1 C 13,0 C 0,0 km/h (0 Bft)
25.08.2013 01:45 12,9 C 96 % 1014,9 hPa 0,0 l/m 0,8 km/h (0 Bft) S 180 12,3 C 13,0 C 0,0 km/h (0 Bft)
25.08.2013 01:50 12,9 C 96 % 1014,9 hPa 0,0 l/m 0,6 km/h (0 Bft) O 90 12,3 C 13,0 C 0,0 km/h (0 Bft)
25.08.2013 01:55 12,9 C 96 % 1014,9 hPa 0,7 l/m 0,3 km/h (0 Bft) W-NW 292 12,3 C 13,0 C 0,0 km/h (0 Bft)
25.08.2013 02:00 12,9 C 96 % 1014,8 hPa 0,0 l/m 0,3 km/h (0 Bft) SO 135 12,3 C 12,9 C 1,6 km/h (1 Bft)
25.08.2013 02:05 12,9 C 96 % 1014,8 hPa 0,0 l/m 0,3 km/h (0 Bft) N 360 12,3 C 12,9 C 0,0 km/h (0 Bft)
25.08.2013 02:10 12,9 C 96 % 1014,8 hPa 0,0 l/m 0,5 km/h (0 Bft) N 360 12,3 C 12,9 C 0,0 km/h (0 Bft)
25.08.2013 02:15 12,9 C 96 % 1014,8 hPa 0,0 l/m 0,8 km/h (0 Bft) N 360 12,3 C 12,9 C 2,7 km/h (1 Bft)
25.08.2013 02:20 12,9 C 96 % 1014,6 hPa 0,0 l/m 0,8 km/h (0 Bft) O-SO 112 12,3 C 12,9 C 0,0 km/h (0 Bft)
25.08.2013 02:25 12,9 C 96 % 1014,6 hPa 0,0 l/m 0,8 km/h (0 Bft) O-SO 112 12,3 C 12,9 C 0,0 km/h (0 Bft)
25.08.2013 02:30 12,9 C 96 % 1014,6 hPa 0,0 l/m 0,5 km/h (0 Bft) O 90 12,3 C 12,9 C 0,0 km/h (0 Bft)
25.08.2013 02:35 12,9 C 96 % 1014,6 hPa 0,0 l/m 0,2 km/h (0 Bft) N 360 12,3 C 12,9 C 0,0 km/h (0 Bft)
25.08.2013 02:40 12,9 C 96 % 1014,7 hPa 0,7 l/m 0,2 km/h (0 Bft) S-SW 202 12,3 C 12,9 C 0,0 km/h (0 Bft)
25.08.2013 02:45 12,9 C 96 % 1014,7 hPa 0,0 l/m 0,2 km/h (0 Bft) SO 135 12,3 C 12,9 C 0,0 km/h (0 Bft)
25.08.2013 02:50 12,8 C 96 % 1014,7 hPa 0,0 l/m 0,2 km/h (0 Bft) NO 45 12,2 C 12,9 C 0,0 km/h (0 Bft)
25.08.2013 02:55 12,8 C 96 % 1014,7 hPa 0,7 l/m 0,0 km/h (0 Bft) W-NW 292 12,2 C 12,9 C 0,0 km/h (0 Bft)
25.08.2013 03:00 12,8 C 96 % 1014,6 hPa 0,0 l/m 0,0 km/h (0 Bft) S 180 12,2 C 12,9 C 0,0 km/h (0 Bft)
25.08.2013 03:05 12,8 C 96 % 1014,6 hPa 0,0 l/m 0,0 km/h (0 Bft) S-SO 157 12,2 C 12,9 C 0,0 km/h (0 Bft)
25.08.2013 03:10 12,8 C 96 % 1014,6 hPa 0,0 l/m 0,0 km/h (0 Bft) S 180 12,2 C 12,9 C 0,0 km/h (0 Bft)
25.08.2013 03:15 12,8 C 96 % 1014,6 hPa 0,0 l/m 0,0 km/h (0 Bft) S 180 12,2 C 12,8 C 0,0 km/h (0 Bft)
25.08.2013 03:20 12,8 C 96 % 1014,5 hPa 0,0 l/m 0,2 km/h (0 Bft) S 180 12,2 C 12,8 C 2,1 km/h (1 Bft)
25.08.2013 03:25 12,8 C 96 % 1014,5 hPa 0,0 l/m 1,1 km/h (1 Bft) S 180 12,2 C 12,9 C 3,1 km/h (1 Bft)
25.08.2013 03:30 12,8 C 96 % 1014,5 hPa 0,0 l/m 1,8 km/h (1 Bft) S-SO 157 12,2 C 12,8 C 0,0 km/h (0 Bft)
25.08.2013 03:35 12,7 C 96 % 1014,5 hPa 0,7 l/m 2,1 km/h (1 Bft) S 180 12,1 C 12,8 C 2,7 km/h (1 Bft)
25.08.2013 03:40 12,7 C 96 % 1014,2 hPa 0,0 l/m 1,6 km/h (1 Bft) S-SW 202 12,1 C 12,8 C 0,0 km/h (0 Bft)
25.08.2013 03:45 12,7 C 96 % 1014,2 hPa 0,0 l/m 0,6 km/h (0 Bft) O-NO 67 12,1 C 12,8 C 0,0 km/h (0 Bft)
25.08.2013 03:50 12,7 C 96 % 1014,2 hPa 0,0 l/m 0,0 km/h (0 Bft) W-NW 292 12,1 C 12,7 C 0,0 km/h (0 Bft)
25.08.2013 03:55 12,6 C 96 % 1014,2 hPa 0,0 l/m 0,2 km/h (0 Bft) NO 45 12,0 C 12,7 C 0,0 km/h (0 Bft)
25.08.2013 04:00 12,6 C 96 % 1014,1 hPa 0,7 l/m 0,2 km/h (0 Bft) N-NW 337 12,0 C 12,7 C 0,0 km/h (0 Bft)
25.08.2013 04:05 12,6 C 96 % 1014,1 hPa 0,0 l/m 0,0 km/h (0 Bft) O 90 12,0 C 12,6 C 0,0 km/h (0 Bft)
25.08.2013 04:10 12,6 C 96 % 1014,1 hPa 0,0 l/m 0,0 km/h (0 Bft) O 90 12,0 C 12,6 C 0,0 km/h (0 Bft)
25.08.2013 04:15 12,6 C 96 % 1014,1 hPa 0,0 l/m 0,0 km/h (0 Bft) O 90 12,0 C 12,6 C 0,0 km/h (0 Bft)
25.08.2013 04:20 12,6 C 96 % 1013,8 hPa 0,0 l/m 0,2 km/h (0 Bft) NW 315 12,0 C 12,7 C 0,0 km/h (0 Bft)
25.08.2013 04:25 12,6 C 96 % 1013,8 hPa 0,0 l/m 0,2 km/h (0 Bft) S-SW 202 12,0 C 12,6 C 0,0 km/h (0 Bft)
25.08.2013 04:30 12,6 C 96 % 1013,8 hPa 0,0 l/m 0,2 km/h (0 Bft) S 180 12,0 C 12,6 C 3,9 km/h (1 Bft)
25.08.2013 04:35 12,6 C 96 % 1013,8 hPa 0,0 l/m 0,5 km/h (0 Bft) S 180 12,0 C 12,6 C 2,1 km/h (1 Bft)
25.08.2013 04:40 12,6 C 96 % 1013,6 hPa 0,0 l/m 0,8 km/h (0 Bft) O-NO 67 12,0 C 12,6 C 0,0 km/h (0 Bft)
25.08.2013 04:45 12,6 C 96 % 1013,6 hPa 0,0 l/m 0,5 km/h (0 Bft) S 180 12,0 C 12,6 C 0,0 km/h (0 Bft)
25.08.2013 04:50 12,6 C 96 % 1013,6 hPa 0,0 l/m 0,5 km/h (0 Bft) N-NO 22 12,0 C 12,6 C 2,1 km/h (1 Bft)
25.08.2013 04:55 12,6 C 96 % 1013,6 hPa 0,0 l/m 0,5 km/h (0 Bft) NO 45 12,0 C 12,6 C 0,0 km/h (0 Bft)
25.08.2013 05:00 12,6 C 96 % 1013,4 hPa 0,0 l/m 0,3 km/h (0 Bft) NO 45 12,0 C 12,6 C 1,6 km/h (1 Bft)
25.08.2013 05:05 12,6 C 96 % 1013,4 hPa 0,0 l/m 0,3 km/h (0 Bft) N-NO 22 12,0 C 12,6 C 2,1 km/h (1 Bft)
25.08.2013 05:10 12,6 C 96 % 1013,4 hPa 0,0 l/m 0,5 km/h (0 Bft) NO 45 12,0 C 12,6 C 0,0 km/h (0 Bft)
25.08.2013 05:15 12,6 C 96 % 1013,4 hPa 0,0 l/m 0,3 km/h (0 Bft) O 90 12,0 C 12,6 C 0,0 km/h (0 Bft)
25.08.2013 05:20 12,6 C 96 % 1013,2 hPa 0,0 l/m 0,2 km/h (0 Bft) O 90 12,0 C 12,6 C 0,0 km/h (0 Bft)
25.08.2013 05:25 12,6 C 96 % 1013,2 hPa 0,0 l/m 0,3 km/h (0 Bft) N-NO 22 12,0 C 12,6 C 2,3 km/h (1 Bft)
25.08.2013 05:31 12,6 C 96 % 1013,2 hPa 0,0 l/m 1,0 km/h (0 Bft) N-NW 337 12,0 C 12,6 C 0,0 km/h (0 Bft)
25.08.2013 05:32 12,6 C 96 % 1013,2 hPa 0,0 l/m 1,0 km/h (0 Bft) N-NW 337 12,0 C 12,6 C 0,0 km/h (0 Bft)
25.08.2013 05:33 12,6 C 96 % 1013,2 hPa 0,0 l/m 1,0 km/h (0 Bft) N-NW 337 12,0 C 12,6 C 0,0 km/h (0 Bft)
25.08.2013 05:34 12,5 C 96 % 1013,2 hPa 0,0 l/m 0,8 km/h (0 Bft) N-NO 22 11,9 C 12,6 C 0,0 km/h (0 Bft)
25.08.2013 05:35 12,5 C 96 % 1013,2 hPa 0,0 l/m 0,8 km/h (0 Bft) N-NO 22 11,9 C 12,6 C 0,0 km/h (0 Bft)
25.08.2013 05:37 12,5 C 96 % 1013,2 hPa 0,0 l/m 0,8 km/h (0 Bft) N-NO 22 11,9 C 12,6 C 0,0 km/h (0 Bft)
25.08.2013 05:40 12,5 C 96 % 1013,0 hPa 0,0 l/m 0,0 km/h (0 Bft) W 270 11,9 C 12,5 C 0,0 km/h (0 Bft)
25.08.2013 05:45 12,6 C 96 % 1013,0 hPa 0,0 l/m 0,0 km/h (0 Bft) S 180 12,0 C 12,6 C 1,6 km/h (1 Bft)
25.08.2013 05:50 12,5 C 96 % 1013,0 hPa 0,0 l/m 0,2 km/h (0 Bft) NO 45 11,9 C 12,6 C 0,0 km/h (0 Bft)
25.08.2013 05:55 12,6 C 96 % 1013,0 hPa 0,0 l/m 0,2 km/h (0 Bft) O 90 12,0 C 12,6 C 0,0 km/h (0 Bft)
25.08.2013 06:00 12,5 C 96 % 1012,9 hPa 0,0 l/m 0,2 km/h (0 Bft) NO 45 11,9 C 12,6 C 0,0 km/h (0 Bft)
25.08.2013 06:05 12,5 C 96 % 1012,9 hPa 0,0 l/m 0,2 km/h (0 Bft) O-NO 67 11,9 C 12,5 C 0,0 km/h (0 Bft)
25.08.2013 06:10 12,5 C 96 % 1012,9 hPa 0,0 l/m 0,0 km/h (0 Bft) S-SO 157 11,9 C 12,5 C 0,0 km/h (0 Bft)
25.08.2013 06:15 12,5 C 96 % 1012,9 hPa 0,0 l/m 0,0 km/h (0 Bft) S-SW 202 11,9 C 12,5 C 0,0 km/h (0 Bft)
25.08.2013 06:20 12,4 C 96 % 1012,7 hPa 0,0 l/m 0,0 km/h (0 Bft) SO 135 11,8 C 12,5 C 0,0 km/h (0 Bft)
25.08.2013 06:25 12,4 C 96 % 1012,7 hPa 0,0 l/m 0,0 km/h (0 Bft) S 180 11,8 C 12,5 C 0,0 km/h (0 Bft)
25.08.2013 06:30 12,4 C 96 % 1012,7 hPa 0,0 l/m 0,0 km/h (0 Bft) S-SO 157 11,8 C 12,5 C 0,0 km/h (0 Bft)
25.08.2013 06:35 12,4 C 96 % 1012,7 hPa 0,0 l/m 0,6 km/h (0 Bft) O-SO 112 11,8 C 12,5 C 1,9 km/h (1 Bft)
25.08.2013 06:40 12,4 C 96 % 1013,1 hPa 0,7 l/m 1,4 km/h (1 Bft) O 90 11,8 C 12,5 C 3,4 km/h (1 Bft)
25.08.2013 06:45 12,4 C 96 % 1013,1 hPa 0,0 l/m 1,9 km/h (1 Bft) S 180 11,8 C 12,5 C 0,0 km/h (0 Bft)
25.08.2013 06:50 12,4 C 96 % 1013,1 hPa 0,0 l/m 1,6 km/h (1 Bft) O-NO 67 11,8 C 12,5 C 1,9 km/h (1 Bft)
25.08.2013 06:55 12,5 C 96 % 1013,1 hPa 0,7 l/m 1,3 km/h (1 Bft) S-SW 202 11,9 C 12,5 C 2,3 km/h (1 Bft)
25.08.2013 07:00 12,5 C 96 % 1013,2 hPa 0,0 l/m 1,8 km/h (1 Bft) SO 135 11,9 C 12,5 C 3,7 km/h (1 Bft)
25.08.2013 07:05 12,4 C 96 % 1013,2 hPa 0,7 l/m 4,7 km/h (1 Bft) W 270 11,8 C 12,4 C 16,7 km/h (3 Bft)
25.08.2013 07:10 12,4 C 96 % 1013,2 hPa 0,0 l/m 6,1 km/h (2 Bft) S 180 11,8 C 12,2 C 5,8 km/h (2 Bft)
25.08.2013 07:15 12,4 C 96 % 1013,2 hPa 0,7 l/m 6,3 km/h (2 Bft) S-SO 157 11,8 C 12,1 C 5,8 km/h (2 Bft)
25.08.2013 07:20 12,4 C 96 % 1013,4 hPa 0,0 l/m 5,6 km/h (1 Bft) S 180 11,8 C 12,4 C 6,0 km/h (2 Bft)
25.08.2013 07:25 12,1 C 96 % 1013,4 hPa 1,4 l/m 8,0 km/h (2 Bft) SO 135 11,5 C 10,7 C 17,4 km/h (3 Bft)
25.08.2013 07:30 12,0 C 96 % 1013,4 hPa 0,7 l/m 9,2 km/h (2 Bft) SO 135 11,4 C 9,6 C 9,5 km/h (2 Bft)
25.08.2013 07:35 11,6 C 96 % 1013,4 hPa 2,1 l/m 8,9 km/h (2 Bft) S 180 11,0 C 9,2 C 17,1 km/h (3 Bft)
25.08.2013 07:40 11,4 C 96 % 1013,8 hPa 0,0 l/m 9,2 km/h (2 Bft) W-SW 247 10,8 C 8,9 C 6,1 km/h (2 Bft)
25.08.2013 07:45 11,4 C 96 % 1013,8 hPa 1,4 l/m 9,2 km/h (2 Bft) S-SO 157 10,8 C 8,7 C 19,0 km/h (3 Bft)
25.08.2013 07:50 11,4 C 96 % 1013,8 hPa 0,0 l/m 7,2 km/h (2 Bft) S 180 10,8 C 10,3 C 6,0 km/h (2 Bft)
25.08.2013 07:55 11,4 C 96 % 1013,8 hPa 0,7 l/m 5,8 km/h (2 Bft) S 180 10,8 C 11,1 C 7,6 km/h (2 Bft)
25.08.2013 08:00 11,3 C 96 % 1013,9 hPa 0,0 l/m 5,3 km/h (1 Bft) S 180 10,7 C 11,2 C 7,1 km/h (2 Bft)
25.08.2013 08:05 11,3 C 96 % 1013,9 hPa 0,7 l/m 4,7 km/h (1 Bft) S 180 10,7 C 11,4 C 4,3 km/h (1 Bft)
25.08.2013 08:10 11,3 C 96 % 1013,9 hPa 0,0 l/m 4,2 km/h (1 Bft) S 180 10,7 C 11,4 C 3,7 km/h (1 Bft)
25.08.2013 08:15 11,2 C 96 % 1013,9 hPa 0,0 l/m 5,5 km/h (1 Bft) S 180 10,6 C 11,1 C 14,0 km/h (3 Bft)
25.08.2013 08:20 11,2 C 96 % 1013,7 hPa 0,7 l/m 7,1 km/h (2 Bft) S-SW 202 10,6 C 10,1 C 10,8 km/h (2 Bft)
25.08.2013 08:25 11,1 C 96 % 1013,7 hPa 0,0 l/m 6,4 km/h (2 Bft) S-SO 157 10,5 C 10,7 C 6,3 km/h (2 Bft)
25.08.2013 08:30 11,1 C 96 % 1013,7 hPa 0,0 l/m 6,9 km/h (2 Bft) S 180 10,5 C 10,2 C 13,2 km/h (3 Bft)
25.08.2013 08:35 11,0 C 96 % 1013,7 hPa 0,7 l/m 6,8 km/h (2 Bft) S 180 10,4 C 10,3 C 7,6 km/h (2 Bft)
25.08.2013 08:40 11,0 C 96 % 1013,8 hPa 0,0 l/m 6,0 km/h (2 Bft) S 180 10,4 C 10,7 C 6,0 km/h (2 Bft)
25.08.2013 08:45 11,0 C 96 % 1013,8 hPa 0,0 l/m 5,3 km/h (1 Bft) S-SO 157 10,4 C 10,9 C 4,2 km/h (1 Bft)
25.08.2013 08:50 11,0 C 96 % 1013,8 hPa 0,0 l/m 6,1 km/h (2 Bft) SO 135 10,4 C 10,7 C 4,7 km/h (1 Bft)
25.08.2013 08:55 11,1 C 96 % 1013,8 hPa 0,0 l/m 6,8 km/h (2 Bft) O-SO 112 10,5 C 10,3 C 10,3 km/h (2 Bft)
25.08.2013 09:00 11,0 C 96 % 1013,9 hPa 0,0 l/m 6,1 km/h (2 Bft) S 180 10,4 C 10,7 C 13,0 km/h (3 Bft)
25.08.2013 09:05 11,1 C 96 % 1013,9 hPa 0,7 l/m 4,8 km/h (1 Bft) O-SO 112 10,5 C 11,1 C 4,7 km/h (1 Bft)
25.08.2013 09:10 11,0 C 96 % 1013,9 hPa 0,0 l/m 4,2 km/h (1 Bft) S 180 10,4 C 11,1 C 5,3 km/h (1 Bft)
25.08.2013 09:15 11,1 C 96 % 1013,9 hPa 0,7 l/m 4,0 km/h (1 Bft) O 90 10,5 C 11,1 C 6,1 km/h (2 Bft)
25.08.2013 09:20 11,1 C 96 % 1014,0 hPa 0,0 l/m 3,9 km/h (1 Bft) N-NO 22 10,5 C 11,1 C 2,6 km/h (1 Bft)
25.08.2013 09:25 11,1 C 96 % 1014,0 hPa 0,0 l/m 3,1 km/h (1 Bft) O-NO 67 10,5 C 11,1 C 1,8 km/h (1 Bft)
25.08.2013 09:30 11,1 C 96 % 1014,0 hPa 0,0 l/m 3,7 km/h (1 Bft) S 180 10,5 C 11,1 C 6,1 km/h (2 Bft)
25.08.2013 09:35 11,1 C 96 % 1014,0 hPa 0,0 l/m 5,0 km/h (1 Bft) S 180 10,5 C 11,0 C 12,7 km/h (3 Bft)
25.08.2013 09:40 11,1 C 96 % 1014,3 hPa 0,7 l/m 5,3 km/h (1 Bft) S 180 10,5 C 10,9 C 7,4 km/h (2 Bft)
25.08.2013 09:45 11,1 C 96 % 1014,3 hPa 0,7 l/m 5,0 km/h (1 Bft) S-SO 157 10,5 C 11,0 C 5,5 km/h (1 Bft)
25.08.2013 09:50 11,1 C 96 % 1014,3 hPa 0,0 l/m 4,7 km/h (1 Bft) SO 135 10,5 C 11,1 C 2,9 km/h (1 Bft)
25.08.2013 09:55 11,0 C 96 % 1014,3 hPa 0,0 l/m 3,9 km/h (1 Bft) S 180 10,4 C 11,1 C 4,7 km/h (1 Bft)
25.08.2013 10:00 11,0 C 96 % 1014,3 hPa 0,7 l/m 4,2 km/h (1 Bft) S 180 10,4 C 11,1 C 4,7 km/h (1 Bft)
25.08.2013 10:05 11,1 C 96 % 1014,3 hPa 0,0 l/m 4,5 km/h (1 Bft) S 180 10,5 C 11,1 C 6,1 km/h (2 Bft)
25.08.2013 10:10 11,1 C 96 % 1014,3 hPa 0,7 l/m 4,5 km/h (1 Bft) O-NO 67 10,5 C 11,1 C 5,3 km/h (1 Bft)
25.08.2013 10:15 11,1 C 96 % 1014,3 hPa 0,0 l/m 4,0 km/h (1 Bft) SO 135 10,5 C 11,1 C 4,0 km/h (1 Bft)
25.08.2013 10:20 11,2 C 96 % 1014,3 hPa 0,0 l/m 3,7 km/h (1 Bft) S 180 10,6 C 11,1 C 2,3 km/h (1 Bft)
25.08.2013 10:25 11,1 C 96 % 1014,3 hPa 0,0 l/m 3,5 km/h (1 Bft) S 180 10,5 C 11,1 C 5,5 km/h (1 Bft)
25.08.2013 10:30 11,1 C 96 % 1014,3 hPa 0,7 l/m 3,4 km/h (1 Bft) O-SO 112 10,5 C 11,1 C 2,4 km/h (1 Bft)
25.08.2013 10:35 11,1 C 96 % 1014,3 hPa 0,0 l/m 3,5 km/h (1 Bft) O-SO 112 10,5 C 11,1 C 5,8 km/h (2 Bft)
25.08.2013 10:40 11,1 C 96 % 1014,3 hPa 0,0 l/m 3,5 km/h (1 Bft) O-SO 112 10,5 C 11,2 C 8,2 km/h (2 Bft)
25.08.2013 10:45 11,3 C 96 % 1014,3 hPa 0,7 l/m 3,4 km/h (1 Bft) S 180 10,7 C 11,2 C 2,9 km/h (1 Bft)
25.08.2013 10:50 11,3 C 96 % 1014,3 hPa 0,0 l/m 3,5 km/h (1 Bft) S 180 10,7 C 11,2 C 5,3 km/h (1 Bft)
25.08.2013 10:55 11,3 C 96 % 1014,3 hPa 0,0 l/m 4,0 km/h (1 Bft) S-SO 157 10,7 C 11,2 C 5,3 km/h (1 Bft)
25.08.2013 11:00 11,3 C 96 % 1014,3 hPa 0,0 l/m 4,0 km/h (1 Bft) S-SO 157 10,7 C 11,3 C 11,7 km/h (2 Bft)
25.08.2013 11:05 11,3 C 96 % 1014,3 hPa 0,0 l/m 4,0 km/h (1 Bft) SO 135 10,7 C 11,3 C 3,9 km/h (1 Bft)
25.08.2013 11:10 11,4 C 96 % 1014,3 hPa 0,0 l/m 3,9 km/h (1 Bft) SW 225 10,8 C 11,3 C 1,8 km/h (1 Bft)
25.08.2013 11:15 11,4 C 96 % 1014,3 hPa 0,7 l/m 3,9 km/h (1 Bft) O-SO 112 10,8 C 11,4 C 4,3 km/h (1 Bft)
25.08.2013 11:20 11,5 C 96 % 1014,3 hPa 0,0 l/m 4,3 km/h (1 Bft) SO 135 10,9 C 11,4 C 6,3 km/h (2 Bft)
25.08.2013 11:25 11,5 C 96 % 1014,3 hPa 0,0 l/m 3,9 km/h (1 Bft) SO 135 10,9 C 11,5 C 3,2 km/h (1 Bft)
25.08.2013 11:30 11,5 C 96 % 1014,3 hPa 0,0 l/m 3,9 km/h (1 Bft) S 180 10,9 C 11,5 C 4,5 km/h (1 Bft)
25.08.2013 11:35 11,6 C 96 % 1014,3 hPa 0,0 l/m 4,2 km/h (1 Bft) S-SW 202 11,0 C 11,6 C 9,2 km/h (2 Bft)
25.08.2013 11:40 11,6 C 96 % 1014,2 hPa 0,0 l/m 5,0 km/h (1 Bft) S 180 11,0 C 11,4 C 5,3 km/h (1 Bft)
25.08.2013 11:45 11,7 C 96 % 1014,2 hPa 0,0 l/m 5,1 km/h (1 Bft) S-SW 202 11,1 C 11,6 C 0,0 km/h (0 Bft)
25.08.2013 11:50 11,7 C 96 % 1014,2 hPa 0,0 l/m 4,3 km/h (1 Bft) S-SW 202 11,1 C 11,6 C 6,6 km/h (2 Bft)
25.08.2013 11:55 11,9 C 96 % 1014,2 hPa 0,0 l/m 3,9 km/h (1 Bft) O-SO 112 11,3 C 11,8 C 2,4 km/h (1 Bft)
25.08.2013 12:00 12,1 C 95 % 1014,2 hPa 0,7 l/m 3,7 km/h (1 Bft) S-SO 157 11,3 C 11,9 C 3,9 km/h (1 Bft)
25.08.2013 12:05 12,2 C 95 % 1014,2 hPa 0,0 l/m 2,7 km/h (1 Bft) S-SW 202 11,4 C 12,1 C 4,5 km/h (1 Bft)
25.08.2013 12:10 12,2 C 95 % 1014,2 hPa 0,0 l/m 3,4 km/h (1 Bft) O-SO 112 11,4 C 12,2 C 1,8 km/h (1 Bft)
25.08.2013 12:15 12,3 C 96 % 1014,2 hPa 0,0 l/m 4,7 km/h (1 Bft) W-SW 247 11,7 C 12,2 C 3,4 km/h (1 Bft)
25.08.2013 12:20 12,4 C 95 % 1014,4 hPa 0,0 l/m 4,5 km/h (1 Bft) S 180 11,6 C 12,3 C 3,1 km/h (1 Bft)
25.08.2013 12:25 12,6 C 95 % 1014,4 hPa 0,0 l/m 4,7 km/h (1 Bft) S 180 11,8 C 12,5 C 10,0 km/h (2 Bft)
25.08.2013 12:30 12,6 C 95 % 1014,4 hPa 0,0 l/m 4,7 km/h (1 Bft) W-SW 247 11,8 C 12,6 C 3,9 km/h (1 Bft)
25.08.2013 12:35 12,8 C 95 % 1014,4 hPa 0,0 l/m 6,0 km/h (2 Bft) S 180 12,0 C 12,4 C 7,2 km/h (2 Bft)
25.08.2013 12:40 12,7 C 95 % 1014,5 hPa 0,0 l/m 6,3 km/h (2 Bft) S 180 11,9 C 12,4 C 6,3 km/h (2 Bft)
25.08.2013 12:45 13,1 C 94 % 1014,5 hPa 0,0 l/m 6,3 km/h (2 Bft) O-SO 112 12,2 C 12,6 C 3,7 km/h (1 Bft)
25.08.2013 12:50 13,3 C 94 % 1014,5 hPa 0,0 l/m 5,6 km/h (1 Bft) W-SW 247 12,4 C 13,1 C 5,8 km/h (2 Bft)
25.08.2013 12:55 13,3 C 94 % 1014,5 hPa 0,0 l/m 5,5 km/h (1 Bft) SO 135 12,4 C 13,4 C 7,9 km/h (2 Bft)
25.08.2013 13:00 13,3 C 94 % 1015,2 hPa 0,0 l/m 5,6 km/h (1 Bft) S-SW 202 12,4 C 13,4 C 10,0 km/h (2 Bft)
25.08.2013 13:05 13,2 C 94 % 1015,2 hPa 0,0 l/m 5,1 km/h (1 Bft) O-NO 67 12,3 C 13,4 C 6,4 km/h (2 Bft)
25.08.2013 13:10 13,1 C 94 % 1015,2 hPa 0,0 l/m 5,1 km/h (1 Bft) S 180 12,2 C 13,3 C 7,9 km/h (2 Bft)
25.08.2013 13:15 13,1 C 93 % 1015,2 hPa 0,0 l/m 5,5 km/h (1 Bft) O-SO 112 12,0 C 13,1 C 3,4 km/h (1 Bft)
25.08.2013 13:20 13,3 C 93 % 1015,1 hPa 0,0 l/m 6,1 km/h (2 Bft) SO 135 12,2 C 13,2 C 9,8 km/h (2 Bft)
25.08.2013 13:25 13,5 C 93 % 1015,1 hPa 0,0 l/m 6,3 km/h (2 Bft) S 180 12,4 C 13,4 C 5,5 km/h (1 Bft)
25.08.2013 13:30 13,5 C 92 % 1015,1 hPa 0,0 l/m 6,4 km/h (2 Bft) W-SW 247 12,2 C 13,4 C 5,0 km/h (1 Bft)
25.08.2013 13:35 13,8 C 92 % 1015,1 hPa 0,0 l/m 6,9 km/h (2 Bft) S 180 12,5 C 13,3 C 10,0 km/h (2 Bft)
25.08.2013 13:40 13,8 C 91 % 1015,3 hPa 0,0 l/m 7,1 km/h (2 Bft) S-SW 202 12,4 C 13,2 C 10,9 km/h (2 Bft)
25.08.2013 13:45 13,9 C 91 % 1015,3 hPa 0,0 l/m 7,2 km/h (2 Bft) S-SW 202 12,5 C 13,3 C 10,6 km/h (2 Bft)
25.08.2013 13:50 13,8 C 90 % 1015,3 hPa 0,0 l/m 6,9 km/h (2 Bft) W-SW 247 12,2 C 13,6 C 5,1 km/h (1 Bft)
25.08.2013 13:55 13,9 C 89 % 1015,3 hPa 0,0 l/m 7,4 km/h (2 Bft) S-SW 202 12,1 C 13,3 C 8,5 km/h (2 Bft)
25.08.2013 14:00 13,9 C 89 % 1015,4 hPa 0,0 l/m 7,9 km/h (2 Bft) S 180 12,1 C 12,9 C 12,7 km/h (3 Bft)
25.08.2013 14:05 14,0 C 89 % 1015,4 hPa 0,0 l/m 8,4 km/h (2 Bft) S 180 12,2 C 12,4 C 6,4 km/h (2 Bft)
25.08.2013 14:10 13,8 C 89 % 1015,4 hPa 0,0 l/m 9,2 km/h (2 Bft) S-SW 202 12,0 C 11,9 C 12,6 km/h (3 Bft)
25.08.2013 14:15 13,6 C 89 % 1015,4 hPa 0,0 l/m 7,9 km/h (2 Bft) S-SO 157 11,8 C 12,3 C 4,8 km/h (1 Bft)
25.08.2013 14:20 13,7 C 89 % 1015,4 hPa 0,0 l/m 9,3 km/h (2 Bft) S 180 11,9 C 11,5 C 14,5 km/h (3 Bft)
25.08.2013 14:25 13,8 C 88 % 1015,4 hPa 0,0 l/m 9,0 km/h (2 Bft) S 180 11,8 C 11,9 C 9,2 km/h (2 Bft)
25.08.2013 14:30 13,7 C 88 % 1015,4 hPa 0,0 l/m 9,3 km/h (2 Bft) S-SO 157 11,7 C 11,8 C 8,5 km/h (2 Bft)
25.08.2013 14:35 14,0 C 88 % 1015,4 hPa 0,0 l/m 8,0 km/h (2 Bft) S-SW 202 12,0 C 13,1 C 10,3 km/h (2 Bft)
25.08.2013 14:40 14,0 C 88 % 1015,6 hPa 0,0 l/m 7,6 km/h (2 Bft) S 180 12,0 C 13,5 C 8,5 km/h (2 Bft)
25.08.2013 14:45 14,1 C 88 % 1015,6 hPa 0,0 l/m 7,9 km/h (2 Bft) S 180 12,1 C 13,7 C 12,6 km/h (3 Bft)
25.08.2013 14:50 13,8 C 88 % 1015,6 hPa 0,0 l/m 8,5 km/h (2 Bft) S 180 11,8 C 12,9 C 18,3 km/h (3 Bft)
25.08.2013 14:55 14,1 C 88 % 1015,6 hPa 0,0 l/m 8,7 km/h (2 Bft) S-SO 157 12,1 C 12,6 C 9,7 km/h (2 Bft)
25.08.2013 15:00 14,4 C 87 % 1015,2 hPa 0,0 l/m 8,0 km/h (2 Bft) S 180 12,3 C 13,3 C 8,2 km/h (2 Bft)
25.08.2013 15:05 14,5 C 87 % 1015,2 hPa 0,0 l/m 8,5 km/h (2 Bft) S 180 12,4 C 13,5 C 12,6 km/h (3 Bft)
25.08.2013 15:10 14,6 C 86 % 1015,2 hPa 0,0 l/m 8,4 km/h (2 Bft) S 180 12,3 C 13,7 C 10,1 km/h (2 Bft)
25.08.2013 15:15 15,1 C 85 % 1015,2 hPa 0,0 l/m 9,3 km/h (2 Bft) S 180 12,6 C 13,7 C 12,7 km/h (3 Bft)
25.08.2013 15:20 14,9 C 84 % 1015,3 hPa 0,0 l/m 9,7 km/h (2 Bft) S-SW 202 12,2 C 14,0 C 22,7 km/h (4 Bft)
25.08.2013 15:25 14,6 C 84 % 1015,3 hPa 0,0 l/m 9,5 km/h (2 Bft) SO 135 11,9 C 14,0 C 12,1 km/h (2 Bft)
25.08.2013 15:30 14,9 C 86 % 1015,3 hPa 0,0 l/m 8,5 km/h (2 Bft) S 180 12,6 C 14,7 C 10,0 km/h (2 Bft)
25.08.2013 15:35 14,9 C 86 % 1015,3 hPa 0,0 l/m 6,6 km/h (2 Bft) S 180 12,6 C 16,1 C 11,1 km/h (2 Bft)
25.08.2013 15:40 14,8 C 86 % 1015,2 hPa 0,0 l/m 6,8 km/h (2 Bft) SO 135 12,5 C 16,1 C 5,0 km/h (1 Bft)
25.08.2013 15:45 15,6 C 86 % 1015,2 hPa 0,0 l/m 7,7 km/h (2 Bft) S 180 13,3 C 15,6 C 6,6 km/h (2 Bft)
25.08.2013 15:50 15,5 C 84 % 1015,2 hPa 0,0 l/m 8,9 km/h (2 Bft) S-SO 157 12,8 C 15,6 C 9,8 km/h (2 Bft)
25.08.2013 15:55 15,8 C 84 % 1015,2 hPa 0,0 l/m 8,7 km/h (2 Bft) S-SW 202 13,1 C 16,2 C 14,0 km/h (3 Bft)
25.08.2013 16:00 16,5 C 84 % 1015,1 hPa 0,0 l/m 7,6 km/h (2 Bft) O-SO 112 13,8 C 16,9 C 10,0 km/h (2 Bft)
25.08.2013 16:05 16,4 C 80 % 1015,1 hPa 0,0 l/m 8,7 km/h (2 Bft) S 180 12,9 C 17,6 C 9,3 km/h (2 Bft)
25.08.2013 16:10 16,0 C 79 % 1015,1 hPa 0,0 l/m 9,7 km/h (2 Bft) S-SW 202 12,4 C 16,9 C 12,2 km/h (2 Bft)
25.08.2013 16:15 16,3 C 81 % 1015,1 hPa 0,0 l/m 9,0 km/h (2 Bft) SW 225 13,0 C 16,8 C 8,0 km/h (2 Bft)
25.08.2013 16:20 16,4 C 80 % 1015,1 hPa 0,0 l/m 7,9 km/h (2 Bft) S-SW 202 12,9 C 17,5 C 8,4 km/h (2 Bft)
25.08.2013 16:25 16,9 C 81 % 1015,1 hPa 0,0 l/m 7,2 km/h (2 Bft) S 180 13,6 C 18,1 C 5,8 km/h (2 Bft)
25.08.2013 16:30 16,8 C 81 % 1015,1 hPa 0,0 l/m 6,4 km/h (2 Bft) S-SO 157 13,5 C 18,7 C 10,9 km/h (2 Bft)
25.08.2013 16:35 16,2 C 80 % 1015,1 hPa 0,0 l/m 6,3 km/h (2 Bft) S 180 12,7 C 18,5 C 10,9 km/h (2 Bft)
25.08.2013 16:40 16,2 C 79 % 1015,1 hPa 0,0 l/m 6,3 km/h (2 Bft) S 180 12,6 C 19,0 C 7,4 km/h (2 Bft)
25.08.2013 16:45 15,9 C 80 % 1015,1 hPa 0,0 l/m 6,1 km/h (2 Bft) SW 225 12,5 C 19,4 C 9,2 km/h (2 Bft)
25.08.2013 16:50 15,8 C 80 % 1015,1 hPa 0,0 l/m 6,3 km/h (2 Bft) S 180 12,4 C 19,2 C 11,9 km/h (2 Bft)
25.08.2013 16:55 15,7 C 79 % 1015,1 hPa 0,0 l/m 7,4 km/h (2 Bft) W 270 12,1 C 18,8 C 6,0 km/h (2 Bft)
25.08.2013 17:00 15,9 C 80 % 1015,0 hPa 0,0 l/m 7,2 km/h (2 Bft) S 180 12,5 C 19,0 C 7,2 km/h (2 Bft)
25.08.2013 17:05 15,7 C 81 % 1015,0 hPa 0,0 l/m 5,3 km/h (1 Bft) SO 135 12,4 C 18,9 C 3,9 km/h (1 Bft)
25.08.2013 17:10 15,7 C 82 % 1015,0 hPa 0,0 l/m 4,7 km/h (1 Bft) S-SO 157 12,6 C 18,1 C 4,2 km/h (1 Bft)
25.08.2013 17:15 14,9 C 82 % 1015,0 hPa 0,0 l/m 4,5 km/h (1 Bft) S-SW 202 11,9 C 16,7 C 5,6 km/h (1 Bft)
25.08.2013 17:20 14,6 C 82 % 1014,5 hPa 0,0 l/m 4,3 km/h (1 Bft) S-SO 157 11,6 C 16,0 C 3,1 km/h (1 Bft)
25.08.2013 17:25 14,4 C 82 % 1014,5 hPa 0,0 l/m 4,0 km/h (1 Bft) S 180 11,4 C 15,3 C 6,9 km/h (2 Bft)
25.08.2013 17:30 14,3 C 81 % 1014,5 hPa 0,0 l/m 5,1 km/h (1 Bft) SO 135 11,1 C 14,9 C 9,2 km/h (2 Bft)
25.08.2013 17:35 14,1 C 82 % 1014,5 hPa 0,0 l/m 6,0 km/h (2 Bft) S 180 11,1 C 14,5 C 9,3 km/h (2 Bft)
25.08.2013 17:40 13,7 C 83 % 1014,7 hPa 0,0 l/m 6,4 km/h (2 Bft) W 270 10,9 C 13,9 C 5,5 km/h (1 Bft)
25.08.2013 17:45 13,2 C 84 % 1014,7 hPa 0,0 l/m 8,7 km/h (2 Bft) S-SO 157 10,6 C 11,3 C 14,5 km/h (3 Bft)
25.08.2013 17:50 13,0 C 83 % 1014,7 hPa 0,0 l/m 8,7 km/h (2 Bft) S 180 10,2 C 10,7 C 10,6 km/h (2 Bft)
25.08.2013 17:55 13,1 C 83 % 1014,7 hPa 0,0 l/m 6,3 km/h (2 Bft) O 90 10,3 C 12,6 C 2,6 km/h (1 Bft)
25.08.2013 18:00 13,2 C 84 % 1014,6 hPa 0,0 l/m 4,0 km/h (1 Bft) S-SO 157 10,6 C 13,0 C 3,2 km/h (1 Bft)
25.08.2013 18:05 13,2 C 83 % 1014,6 hPa 0,0 l/m 3,5 km/h (1 Bft) S 180 10,4 C 13,1 C 4,0 km/h (1 Bft)
25.08.2013 18:10 13,2 C 83 % 1014,6 hPa 0,0 l/m 4,3 km/h (1 Bft) S 180 10,4 C 13,1 C 3,4 km/h (1 Bft)
25.08.2013 18:15 13,3 C 84 % 1014,6 hPa 0,0 l/m 4,0 km/h (1 Bft) W-SW 247 10,7 C 13,3 C 7,2 km/h (2 Bft)
25.08.2013 18:20 13,3 C 84 % 1014,7 hPa 0,0 l/m 3,5 km/h (1 Bft) S-SW 202 10,7 C 13,3 C 4,8 km/h (1 Bft)
25.08.2013 18:25 13,2 C 83 % 1014,7 hPa 0,0 l/m 4,0 km/h (1 Bft) S 180 10,4 C 13,4 C 4,8 km/h (1 Bft)
25.08.2013 18:30 13,2 C 83 % 1014,7 hPa 0,0 l/m 4,2 km/h (1 Bft) N-NW 337 10,4 C 13,4 C 7,2 km/h (2 Bft)
25.08.2013 18:35 13,1 C 83 % 1014,7 hPa 0,0 l/m 4,3 km/h (1 Bft) SW 225 10,3 C 13,3 C 3,9 km/h (1 Bft)
25.08.2013 18:40 13,1 C 83 % 1014,6 hPa 0,0 l/m 4,3 km/h (1 Bft) SO 135 10,3 C 13,3 C 2,9 km/h (1 Bft)
25.08.2013 18:45 13,1 C 84 % 1014,6 hPa 0,0 l/m 3,9 km/h (1 Bft) W-SW 247 10,5 C 13,3 C 1,9 km/h (1 Bft)
25.08.2013 18:50 13,2 C 84 % 1014,6 hPa 0,0 l/m 4,0 km/h (1 Bft) SW 225 10,6 C 13,3 C 5,6 km/h (1 Bft)
25.08.2013 18:55 13,3 C 84 % 1014,6 hPa 0,0 l/m 4,3 km/h (1 Bft) S-SW 202 10,7 C 13,4 C 7,7 km/h (2 Bft)
25.08.2013 19:00 13,4 C 84 % 1014,6 hPa 0,0 l/m 4,5 km/h (1 Bft) S 180 10,8 C 13,5 C 8,5 km/h (2 Bft)
25.08.2013 19:05 13,4 C 84 % 1014,6 hPa 0,0 l/m 5,6 km/h (1 Bft) S 180 10,8 C 13,5 C 6,8 km/h (2 Bft)
25.08.2013 19:10 13,3 C 83 % 1014,6 hPa 0,0 l/m 5,1 km/h (1 Bft) S 180 10,5 C 13,5 C 2,3 km/h (1 Bft)
25.08.2013 19:15 13,2 C 83 % 1014,6 hPa 0,0 l/m 3,4 km/h (1 Bft) S 180 10,4 C 13,5 C 5,3 km/h (1 Bft)
25.08.2013 19:20 13,2 C 84 % 1014,6 hPa 0,0 l/m 2,6 km/h (1 Bft) N 360 10,6 C 13,4 C 1,6 km/h (1 Bft)
25.08.2013 19:25 13,1 C 84 % 1014,6 hPa 0,0 l/m 1,8 km/h (1 Bft) S 180 10,5 C 13,3 C 0,0 km/h (0 Bft)
25.08.2013 19:30 13,0 C 84 % 1014,6 hPa 0,0 l/m 1,4 km/h (1 Bft) O-SO 112 10,4 C 13,3 C 1,8 km/h (1 Bft)
25.08.2013 19:35 12,9 C 85 % 1014,6 hPa 0,0 l/m 0,8 km/h (0 Bft) NW 315 10,4 C 13,1 C 0,0 km/h (0 Bft)
25.08.2013 19:40 12,8 C 85 % 1014,6 hPa 0,0 l/m 0,5 km/h (0 Bft) SO 135 10,3 C 13,1 C 0,0 km/h (0 Bft)
25.08.2013 19:45 12,6 C 85 % 1014,6 hPa 0,0 l/m 0,5 km/h (0 Bft) SO 135 10,1 C 12,8 C 0,0 km/h (0 Bft)
25.08.2013 19:50 12,6 C 85 % 1014,6 hPa 0,0 l/m 0,6 km/h (0 Bft) S-SO 157 10,1 C 12,7 C 3,4 km/h (1 Bft)
25.08.2013 19:55 12,5 C 85 % 1014,6 hPa 0,0 l/m 1,3 km/h (1 Bft) S-SO 157 10,0 C 12,5 C 1,9 km/h (1 Bft)
25.08.2013 20:00 12,5 C 85 % 1014,8 hPa 0,0 l/m 2,1 km/h (1 Bft) O-SO 112 10,0 C 12,5 C 3,7 km/h (1 Bft)
25.08.2013 20:05 12,4 C 86 % 1014,8 hPa 0,0 l/m 3,5 km/h (1 Bft) S 180 10,1 C 12,5 C 6,9 km/h (2 Bft)
25.08.2013 20:10 12,4 C 86 % 1014,8 hPa 0,0 l/m 4,3 km/h (1 Bft) S-SO 157 10,1 C 12,5 C 7,1 km/h (2 Bft)
25.08.2013 20:15 12,3 C 86 % 1014,8 hPa 0,0 l/m 4,0 km/h (1 Bft) S-SW 202 10,0 C 12,5 C 5,3 km/h (1 Bft)
25.08.2013 20:20 12,3 C 86 % 1014,8 hPa 0,0 l/m 3,5 km/h (1 Bft) N-NW 337 10,0 C 12,4 C 2,1 km/h (1 Bft)
25.08.2013 20:25 12,3 C 86 % 1014,8 hPa 0,0 l/m 3,9 km/h (1 Bft) O-SO 112 10,0 C 12,4 C 4,2 km/h (1 Bft)
25.08.2013 20:30 12,3 C 86 % 1014,8 hPa 0,0 l/m 4,2 km/h (1 Bft) S 180 10,0 C 12,4 C 6,1 km/h (2 Bft)
25.08.2013 20:35 12,2 C 87 % 1014,8 hPa 0,0 l/m 4,7 km/h (1 Bft) S 180 10,1 C 12,4 C 8,4 km/h (2 Bft)
25.08.2013 20:40 12,3 C 87 % 1015,0 hPa 0,0 l/m 5,1 km/h (1 Bft) S 180 10,2 C 12,4 C 8,5 km/h (2 Bft)
25.08.2013 20:45 12,3 C 87 % 1015,0 hPa 0,0 l/m 4,8 km/h (1 Bft) O-NO 67 10,2 C 12,4 C 5,1 km/h (1 Bft)
25.08.2013 20:50 12,2 C 87 % 1015,0 hPa 0,0 l/m 4,2 km/h (1 Bft) SO 135 10,1 C 12,4 C 8,9 km/h (2 Bft)
25.08.2013 20:55 12,1 C 87 % 1015,0 hPa 0,0 l/m 3,2 km/h (1 Bft) S-SO 157 10,0 C 12,3 C 0,0 km/h (0 Bft)
25.08.2013 21:00 12,0 C 87 % 1014,9 hPa 0,0 l/m 2,6 km/h (1 Bft) O-NO 67 9,9 C 12,1 C 6,9 km/h (2 Bft)
25.08.2013 21:05 11,8 C 87 % 1014,9 hPa 0,0 l/m 1,8 km/h (1 Bft) S 180 9,7 C 11,8 C 2,4 km/h (1 Bft)
25.08.2013 21:10 11,7 C 87 % 1014,9 hPa 0,0 l/m 1,8 km/h (1 Bft) SO 135 9,6 C 11,6 C 6,1 km/h (2 Bft)
25.08.2013 21:15 11,5 C 87 % 1014,9 hPa 0,0 l/m 1,6 km/h (1 Bft) O 90 9,4 C 11,4 C 2,7 km/h (1 Bft)
25.08.2013 21:20 11,4 C 87 % 1015,0 hPa 0,0 l/m 1,4 km/h (1 Bft) S-SW 202 9,3 C 11,2 C 0,0 km/h (0 Bft)
25.08.2013 21:25 11,2 C 87 % 1015,0 hPa 0,0 l/m 0,6 km/h (0 Bft) O 90 9,1 C 11,0 C 1,6 km/h (1 Bft)
25.08.2013 21:30 11,0 C 88 % 1015,0 hPa 0,0 l/m 0,3 km/h (0 Bft) N-NO 22 9,1 C 10,8 C 0,0 km/h (0 Bft)
25.08.2013 21:35 10,9 C 88 % 1015,0 hPa 0,0 l/m 1,1 km/h (1 Bft) NO 45 9,0 C 10,6 C 2,6 km/h (1 Bft)
25.08.2013 21:40 11,0 C 88 % 1015,0 hPa 0,0 l/m 1,3 km/h (1 Bft) O 90 9,1 C 10,5 C 2,6 km/h (1 Bft)
25.08.2013 21:45 11,0 C 88 % 1015,0 hPa 0,0 l/m 1,1 km/h (1 Bft) O-NO 67 9,1 C 10,5 C 2,3 km/h (1 Bft)
25.08.2013 21:50 11,0 C 89 % 1015,0 hPa 0,0 l/m 1,4 km/h (1 Bft) NO 45 9,3 C 10,5 C 2,9 km/h (1 Bft)
25.08.2013 21:55 11,1 C 89 % 1015,0 hPa 0,0 l/m 1,9 km/h (1 Bft) NO 45 9,4 C 10,6 C 4,3 km/h (1 Bft)
25.08.2013 22:00 11,0 C 89 % 1014,8 hPa 0,0 l/m 1,9 km/h (1 Bft) O 90 9,3 C 10,6 C 3,5 km/h (1 Bft)
25.08.2013 22:05 11,0 C 89 % 1014,8 hPa 0,0 l/m 1,3 km/h (1 Bft) S-SO 157 9,3 C 10,6 C 0,0 km/h (0 Bft)
25.08.2013 22:10 10,9 C 90 % 1014,8 hPa 0,0 l/m 0,8 km/h (0 Bft) SW 225 9,3 C 10,6 C 0,0 km/h (0 Bft)
25.08.2013 22:15 10,7 C 90 % 1014,8 hPa 0,0 l/m 0,6 km/h (0 Bft) NO 45 9,1 C 10,4 C 0,0 km/h (0 Bft)
25.08.2013 22:20 10,6 C 90 % 1014,8 hPa 0,0 l/m 0,5 km/h (0 Bft) O-NO 67 9,0 C 10,3 C 0,0 km/h (0 Bft)
25.08.2013 22:25 10,6 C 90 % 1014,8 hPa 0,0 l/m 0,6 km/h (0 Bft) O-NO 67 9,0 C 10,3 C 1,8 km/h (1 Bft)
25.08.2013 22:30 10,6 C 89 % 1014,8 hPa 0,0 l/m 0,8 km/h (0 Bft) O-SO 112 8,9 C 10,3 C 1,9 km/h (1 Bft)
25.08.2013 22:35 10,6 C 90 % 1014,8 hPa 0,0 l/m 0,8 km/h (0 Bft) NO 45 9,0 C 10,3 C 0,0 km/h (0 Bft)
25.08.2013 22:40 10,6 C 90 % 1014,7 hPa 0,0 l/m 1,0 km/h (0 Bft) O-SO 112 9,0 C 10,2 C 0,0 km/h (0 Bft)
25.08.2013 22:45 10,5 C 90 % 1014,7 hPa 0,0 l/m 1,0 km/h (0 Bft) NO 45 8,9 C 10,2 C 2,1 km/h (1 Bft)
25.08.2013 22:50 10,5 C 91 % 1014,7 hPa 0,0 l/m 0,8 km/h (0 Bft) NO 45 9,1 C 10,2 C 0,0 km/h (0 Bft)
25.08.2013 22:55 10,5 C 91 % 1014,7 hPa 0,0 l/m 1,3 km/h (1 Bft) NO 45 9,1 C 10,1 C 2,1 km/h (1 Bft)
25.08.2013 23:00 10,4 C 91 % 1014,6 hPa 0,0 l/m 1,8 km/h (1 Bft) NO 45 9,0 C 10,1 C 3,1 km/h (1 Bft)
25.08.2013 23:05 10,4 C 91 % 1014,6 hPa 0,0 l/m 1,8 km/h (1 Bft) O-NO 67 9,0 C 10,0 C 4,0 km/h (1 Bft)
25.08.2013 23:10 10,5 C 91 % 1014,6 hPa 0,0 l/m 2,3 km/h (1 Bft) NO 45 9,1 C 10,2 C 4,8 km/h (1 Bft)
25.08.2013 23:15 10,6 C 91 % 1014,6 hPa 0,0 l/m 1,9 km/h (1 Bft) O 90 9,2 C 10,2 C 2,7 km/h (1 Bft)
25.08.2013 23:20 10,6 C 91 % 1014,5 hPa 0,0 l/m 1,8 km/h (1 Bft) O-SO 112 9,2 C 10,2 C 2,7 km/h (1 Bft)
25.08.2013 23:25 10,3 C 91 % 1014,5 hPa 0,0 l/m 2,6 km/h (1 Bft) S 180 8,9 C 10,2 C 5,1 km/h (1 Bft)
25.08.2013 23:30 10,3 C 91 % 1014,5 hPa 0,0 l/m 2,6 km/h (1 Bft) NO 45 8,9 C 10,2 C 3,9 km/h (1 Bft)
25.08.2013 23:35 10,2 C 91 % 1014,5 hPa 0,0 l/m 2,3 km/h (1 Bft) NO 45 8,8 C 10,0 C 3,1 km/h (1 Bft)
25.08.2013 23:40 10,1 C 91 % 1014,6 hPa 0,0 l/m 2,4 km/h (1 Bft) O-NO 67 8,7 C 9,8 C 2,1 km/h (1 Bft)
25.08.2013 23:45 9,8 C 91 % 1014,6 hPa 0,0 l/m 1,6 km/h (1 Bft) O 90 8,4 C 9,6 C 0,0 km/h (0 Bft)
25.08.2013 23:50 9,7 C 91 % 1014,6 hPa 0,0 l/m 1,0 km/h (0 Bft) O-NO 67 8,3 C 9,5 C 2,9 km/h (1 Bft)
25.08.2013 23:55 9,8 C 91 % 1014,6 hPa 0,0 l/m 1,6 km/h (1 Bft) N-NO 22 8,4 C 9,4 C 2,1 km/h (1 Bft)
_ Min-Zeit 23:50 16:55 06:35 - 06:30 - - 23:50 07:45 23:45
Minimum _ 9,7 C 79 % 1012,7 hPa - 0,0 km/h (0 Bft) - - 8,3 C 8,7 C 0,0 km/h (0 Bft)
_ Max-Zeit 16:25 12:15 14:55 07:35 16:10 - - 16:00 16:45 15:20
Maximum _ 16,9 C 96 % 1015,6 hPa 2,1 l/m 9,7 km/h
S-SW (2 Bft)
- - 13,8 C 19,4 C 22,7 km/h
S-SW (4 Bft)
Durchschnitt _ 12,6 C 92 % 1014,5 hPa #22,0 l/m 3,5 km/h (1 Bft) S - 11,2 C 12,5 C 4,5 km/h (1 Bft)